Regional Weather Roundup
Issued by NWS

Home | Current Version | Previous Version | Text Only | Print | Product List | Glossary Off
Versions: 1 2 3 4 5 6 7 8 9 10 11 12 13 14 15 16 17 18 19 20 21 22 23 24 25 26 27 28 29 30 31 32 33 34 35 36 37 38 39 40 41 42 43 44 45 46 47 48 49 50

000
ASUS43 KMKX 061500
RWRWI

WISCONSIN REGIONAL WEATHER ROUNDUP
NATIONAL WEATHER SERVICE MILWAUKEE/SULLIVAN WI
1000 AM CDT MON JUL 06 2015

NOTE: "FAIR" INDICATES FEW OR NO CLOUDS BELOW 12,000 FEET WITH NO
SIGNIFICANT WEATHER AND/OR OBSTRUCTIONS TO VISIBILITY.

WIZ001-002-006>008-014>016-023>028-061600-
NORTHWEST WISCONSIN

CITY           SKY/WX    TMP DP  RH WIND       PRES   REMARKS
SUPERIOR ARPT  LGT RAIN  61  59  95 NE8       29.88R
ASHLAND        LGT RAIN  63  63 100 N15       29.84S FOG
HAYWARD        LGT RAIN  68  66  93 E3        29.82R
SIREN          CLOUDY    68  67  96 NE3       29.80S
CUMBERLAND     DRIZZLE   68  64  88 SE6       29.81S
RICE LAKE      RAIN      68  66  94 E7        29.82F
CHETEK         DRIZZLE   68  67  96 MISG      29.81S
LADYSMITH      DRIZZLE   69  67  92 E5        29.84S
EAU CLAIRE     CLOUDY    70  68  93 SE7       29.79F
MENOMONIE      CLOUDY    71  70  98 E7        29.79F
NEW RICHMOND   DRIZZLE   70  70  99 SE3       29.80R
OSCEOLA        LGT RAIN  70  70 100 SE3       29.83R
$$

WIZ003>005-009-010-017-018-061600-
NORTH CENTRAL WISCONSIN

CITY           SKY/WX    TMP DP  RH WIND       PRES   REMARKS
MANITOWISH WTR DRIZZLE   67  67 100 S5        29.86S
ARBOR VITAE    DRIZZLE   67  66  94 S3        29.86F
WOODRUFF       DRIZZLE   67  66  94 S3        29.86F
RHINELANDER    LGT RAIN  67  66  97 S6        29.87F FOG
EAGLE RIVER    LGT RAIN  66  66 100 CALM      29.87F
LAND O LAKES   LGT RAIN  67  67  97 SE3       29.87F
PHILLIPS       DRIZZLE   67  67  99 SE6       29.83F
TOMAHAWK       RAIN      66  65  96 CALM      29.86F
MEDFORD        LGT RAIN  66  66  99 SE7       29.85F
MERRILL        LGT RAIN  67  67 100 CALM      29.87F
$$

WIZ029-030-035-036-043>047-061600-
CENTRAL WISCONSIN

CITY           SKY/WX    TMP DP  RH WIND       PRES   REMARKS
WAUSAU         CLOUDY    69  66  90 SW7       29.86R FOG
MOSINEE        LGT RAIN  68  68 100 S14       29.89R
MARSHFIELD     RAIN      69  66  90 S6        29.86S FOG
STEVENS POINT  CLOUDY    67  66  97 S9        29.88S FOG
WAUPACA        CLOUDY    75  69  81 SW8       29.88R
WAUTOMA        NOT AVBL
WISC RAPIDS    RAIN      70  67  90 W5        29.89R FOG
CAMP DOUGLAS   CLOUDY    70  70 100 S8        29.87S
$$

WIZ011>013-019>022-031-037>040-048>050-061600-
NORTHEAST WISCONSIN

CITY           SKY/WX    TMP DP  RH WIND       PRES   REMARKS
ANTIGO         CLOUDY    66  65  96 CALM      29.88F FOG
SHAWANO        CLOUDY    75  67  74 S5        29.87F
OCONTO         CLOUDY    74  68  80 S7        29.86F
STURGEON BAY   CLOUDY    70  63  78 S14       29.91S
GREEN BAY      CLOUDY    76  68  76 S10       29.88F HAZE
MANITOWOC      NOT AVBL
APPLETON       CLOUDY    73  64  73 S12       29.88F HAZE
CLINTONVILLE   CLOUDY    75  64  69 SW9       29.87R
OSHKOSH        CLOUDY    75  68  78 S15G22    29.87F HAZE
$$

WIZ032>034-041-042-053>061-061600-
SOUTHWEST WISCONSIN

CITY           SKY/WX    TMP DP  RH WIND       PRES   REMARKS
LA CROSSE      CLOUDY    75  70  84 S8        29.85R
SPARTA         CLOUDY    72  69  92 S3        29.87F FOG
VIROQUA        CLOUDY    73  73 100 SW9       29.90S
BOSCOBEL       CLOUDY    75  71  87 SW5       29.90R FOG
PRAIRIE DU CHI LGT RAIN  74  67  79 SW9       29.90R
PLATTEVILLE    CLOUDY    73  70  89 SW9       29.93R
$$

WIZ056-057-062-063-064-067-068-061600-
SOUTH CENTRAL WISCONSIN

CITY           SKY/WX    TMP DP  RH WIND       PRES   REMARKS
REEDSBURG      LGT RAIN  70  69  96 SW9       29.90R
BARABOO/DELLS  LGT RAIN  70  67  89 SW10G17   29.90R
LONE ROCK      NOT AVBL
MINERAL POINT  CLOUDY    73  70  88 SW8       29.92S FOG
MADISON        CLOUDY    76  68  76 SW8       29.90S
MIDDLETON      CLOUDY    75  68  78 SW8       29.91R
WATERTOWN      CLOUDY    74  73  96 S7        29.91F
MONROE         CLOUDY    73  70  88 S16       29.92S
JANESVILLE     CLOUDY    81  70  69 S12G17    29.91F HX  84
$$

WIZ051-052-058>065-066-070>072-061600-
SOUTHEAST WISCONSIN

CITY           SKY/WX    TMP DP  RH WIND       PRES   REMARKS
MILWAUKEE      CLOUDY    78  66  66 S14G23    29.95R HX  80
WAUKESHA       SUNNY     73  64  73 S7        29.95S
MILWAUKEE/TIMM SUNNY     75  64  69 S12       29.95S
RACINE         PTSUNNY   74  64  71 S9        29.97S HAZE
BURLINGTON     CLOUDY    75  67  75 S9        29.95R
KENOSHA        PTSUNNY   79  68  69 S13       29.96F HAZE    HX  81
FOND DU LAC    CLOUDY    77  68  73 S12       29.89F
SHEBOYGAN      CLOUDY    74  66  76 S13       29.92F HAZE
WEST BEND      CLOUDY    73  64  73 S7        29.93F
JUNEAU         CLOUDY    74  67  81 S12G17    29.92S
$$

LSZ147-162-061600-
LAKE SUPERIOR

STATION/POSITION TIME  TEMP    WIND        PRES    WAVE
                       AIR SEA DIR/SP/G            HT/PER
                 (UTC) (F)     (DEG/KT/KT) (MB)    (FT/S)
W MID LAKE BUOY  1350   50 39  350/ 12/ 12 1011.4R   1
DEVILS ISLAND    1400   60      30/ 14/ 17 1011.0F
PORT WING        1300   63      30/  8/ 14 1011.2
SAXON HARBOR     1440   64     350/ 11/ 14 1010.2S
$$

LMZ867-665-643>646-061600-
LAKE MICHIGAN

STATION/POSITION TIME  TEMP    WIND        PRES    WAVE
                       AIR SEA DIR/SP/G            HT/PER
                 (UTC) (F)     (DEG/KT/KT) (MB)    (FT/S)
CHAMBERS ISLAND  1400   71     160/  4/  9 1011.9F
S GREEN BAY BUOY 1400   71 69  180/ 12/ 16 1013.1F
N MID LAKE BUOY  1350   58 55  190/ 16/ 17 1012.5F   2/ 4
NORTHPORT PIER   1400   67     170/  8/ 13 1012.2F
SISTER BAY       1414   71     190/ 14/ 17   N/A
ALGOMA LAKESHORE 1341          220/ 10/ 11   N/A
KEWAUNEE LAKESHO 1400   60     180/ 11/ 13 1012.4F
SHEBOYGAN LAKESH 1400   63     180/ 15/ 15 1013.9S
PORT WASHINGTON  1400   67     190/  8/ 10 1014.6S
ATWATER BUOY     1400   63 59  150/ 10/ 12 1015.1F
MILWAUKEE LAKESH 1400   67     150/  9/ 10   N/A
KENOSHA   LAKESH 1400   65     170/ 11/ 13 1014.2F
$$

TC  - TEMPERATURE IN CELSIUS
VSB - VISIBILITY IN STATUTE MILES
WCI - WIND CHILL INDEX
HX  - HEAT INDEX




USA.gov is the U.S. government's official web portal to all federal, state and local government web resources and services.